When you browse on this site, cookies collect data to enhance your experience and personalize the content and advertising you see.
Visit our Privacy Policy to learn more. By continuing to use the site, you agree to this use of cookies and data.
  • In Spain
  • List of Countries
  • For 7 days
  • Water Temperature
  • Satellite Maps
  • Weather Map
  • Weather Widgets
  • user-avatar
    Login

    Hourly Weather Cam Ranh

    Today, 19 December, Wednesday

    Time Temperature Precipitation Wind Pressure Humidity
    00:00 +24°C° 0.1 mm 6 mps 756 mmHg 88%
    01:00 +24°C° 0 mm 6 mps 756 mmHg 88%
    02:00 +24°C° 0.1 mm 6 mps 756 mmHg 89%
    03:00 +24°C° 0.1 mm 6 mps 756 mmHg 89%
    04:00 +24°C° 0.1 mm 6 mps 755 mmHg 90%
    05:00 +24°C° 0.1 mm 6 mps 756 mmHg 89%
    06:00 +24°C° 0.1 mm 6 mps 756 mmHg 88%
    07:00 +26°C° 0 mm 5 mps 756 mmHg 86%
    08:00 +28°C° 0.1 mm 5 mps 756 mmHg 80%
    09:00 +29°C° 0.1 mm 6 mps 756 mmHg 74%
    10:00 +32°C° 0.1 mm 6 mps 756 mmHg 68%
    11:00 +32°C° 0.1 mm 6 mps 756 mmHg 68%
    12:00 +32°C° 0.1 mm 6 mps 755 mmHg 67%
    13:00 +33°C° 0.1 mm 7 mps 755 mmHg 67%
    14:00 +32°C° 0 mm 6 mps 755 mmHg 70%
    15:00 +30°C° 0 mm 6 mps 754 mmHg 73%
    16:00 +30°C° 0 mm 6 mps 754 mmHg 76%
    17:00 +29°C° 0 mm 6 mps 754 mmHg 81%
    18:00 +27°C° 0 mm 5 mps 755 mmHg 86%
    19:00 +26°C° 0 mm 5 mps 755 mmHg 91%
    20:00 +26°C° 0.1 mm 5 mps 755 mmHg 92%
    21:00 +26°C° 0.1 mm 4 mps 756 mmHg 92%
    22:00 +25°C° 0.1 mm 4 mps 756 mmHg 92%
    23:00 +25°C° 0.1 mm 4 mps 756 mmHg 92%

    Tomorrow, 20 December, Thursday

    Time Temperature Precipitation Wind Pressure Humidity
    00:00 +25°C° 0.1 mm 4 mps 756 mmHg 92%
    01:00 +25°C° 0.1 mm 3 mps 756 mmHg 92%
    02:00 +25°C° 0.1 mm 3 mps 755 mmHg 92%
    03:00 +25°C° 0.1 mm 3 mps 755 mmHg 91%
    04:00 +25°C° 0.1 mm 3 mps 755 mmHg 91%
    05:00 +25°C° 0 mm 3 mps 755 mmHg 89%
    06:00 +25°C° 0 mm 3 mps 755 mmHg 88%
    07:00 +26°C° 0 mm 3 mps 755 mmHg 86%
    08:00 +28°C° 0 mm 4 mps 755 mmHg 79%
    09:00 +30°C° 0 mm 4 mps 755 mmHg 72%
    10:00 +33°C° 0 mm 4 mps 755 mmHg 65%
    11:00 +33°C° 0 mm 4 mps 755 mmHg 65%
    12:00 +33°C° 0 mm 4 mps 754 mmHg 66%
    13:00 +33°C° 0 mm 5 mps 754 mmHg 66%
    14:00 +33°C° 0 mm 5 mps 753 mmHg 70%
    15:00 +32°C° 0 mm 5 mps 753 mmHg 75%
    16:00 +30°C° 0 mm 5 mps 752 mmHg 79%
    17:00 +29°C° 0 mm 5 mps 753 mmHg 84%
    18:00 +28°C° 0 mm 4 mps 753 mmHg 90%
    19:00 +26°C° 0 mm 4 mps 754 mmHg 95%
    20:00 +26°C° 0 mm 4 mps 754 mmHg 96%
    21:00 +26°C° 0 mm 4 mps 754 mmHg 96%
    22:00 +26°C° 0 mm 3 mps 754 mmHg 96%
    23:00 +25°C° 0 mm 3 mps 754 mmHg 96%

    Day after tomorrow, 21 December, Friday

    Time Temperature Precipitation Wind Pressure Humidity
    00:00 +25°C° 0 mm 3 mps 754 mmHg 96%
    01:00 +25°C° 0 mm 3 mps 754 mmHg 96%
    02:00 +25°C° 0 mm 3 mps 754 mmHg 96%
    03:00 +24°C° 0 mm 3 mps 753 mmHg 95%
    04:00 +24°C° 0 mm 3 mps 753 mmHg 94%
    05:00 +24°C° 0 mm 3 mps 753 mmHg 93%
    06:00 +25°C° 0 mm 3 mps 754 mmHg 91%
    07:00 +25°C° 0 mm 3 mps 754 mmHg 89%
    08:00 +27°C° 0 mm 3 mps 754 mmHg 80%
    09:00 +29°C° 0 mm 3 mps 754 mmHg 72%
    10:00 +31°C° 0 mm 3 mps 755 mmHg 63%
    11:00 +31°C° 0 mm 3 mps 754 mmHg 63%
    12:00 +33°C° 0 mm 3 mps 753 mmHg 62%
    13:00 +33°C° 0 mm 4 mps 752 mmHg 62%
    14:00 +32°C° 0 mm 4 mps 752 mmHg 67%
    15:00 +32°C° 0 mm 4 mps 752 mmHg 73%
    16:00 +30°C° 0 mm 4 mps 751 mmHg 78%
    17:00 +29°C° 0 mm 4 mps 752 mmHg 84%
    18:00 +28°C° 0 mm 4 mps 753 mmHg 89%
    19:00 +27°C° 0 mm 4 mps 753 mmHg 95%
    20:00 +27°C° 0 mm 4 mps 754 mmHg 95%
    21:00 +27°C° 0 mm 4 mps 754 mmHg 95%
    22:00 +27°C° 0 mm 5 mps 754 mmHg 94%
    23:00 +26°C° 0.1 mm 5 mps 754 mmHg 95%

    22 December, Saturday

    Time Temperature Precipitation Wind Pressure Humidity
    00:00 +26°C° 0.1 mm 5 mps 754 mmHg 95%
    01:00 +26°C° 0.1 mm 5 mps 753 mmHg 95%
    02:00 +25°C° 0 mm 5 mps 753 mmHg 95%
    03:00 +25°C° 0 mm 5 mps 753 mmHg 95%
    04:00 +25°C° 0 mm 5 mps 752 mmHg 95%
    05:00 +25°C° 0 mm 5 mps 753 mmHg 93%
    06:00 +25°C° 0 mm 5 mps 753 mmHg 92%
    07:00 +25°C° 0 mm 5 mps 753 mmHg 90%
    08:00 +27°C° 0 mm 5 mps 753 mmHg 80%
    09:00 +29°C° 0 mm 5 mps 754 mmHg 70%
    10:00 +30°C° 0 mm 5 mps 754 mmHg 60%
    11:00 +32°C° 0 mm 5 mps 753 mmHg 59%
    12:00 +32°C° 0 mm 5 mps 752 mmHg 59%
    13:00 +32°C° 0 mm 6 mps 751 mmHg 58%
    14:00 +30°C° 0.1 mm 6 mps 751 mmHg 65%
    15:00 +28°C° 0.1 mm 6 mps 751 mmHg 71%
    16:00 +27°C° 0.1 mm 6 mps 751 mmHg 78%
    17:00 +27°C° 0.4 mm 6 mps 751 mmHg 80%
    18:00 +26°C° 0.4 mm 6 mps 752 mmHg 83%
    19:00 +26°C° 0.4 mm 6 mps 752 mmHg 85%
    20:00 +24°C° 1 mm 6 mps 753 mmHg 87%
    21:00 +24°C° 1 mm 6 mps 753 mmHg 89%
    22:00 +24°C° 1 mm 6 mps 753 mmHg 91%
    23:00 +24°C° 1.2 mm 6 mps 752 mmHg 91%

    23 December, Sunday

    Time Temperature Precipitation Wind Pressure Humidity
    00:00 +24°C° 1.2 mm 6 mps 752 mmHg 91%
    01:00 +24°C° 1.2 mm 6 mps 751 mmHg 91%
    02:00 +24°C° 3.9 mm 6 mps 751 mmHg 93%
    03:00 +24°C° 3.9 mm 6 mps 751 mmHg 95%
    04:00 +24°C° 3.9 mm 6 mps 751 mmHg 96%
    05:00 +24°C° 1.3 mm 6 mps 751 mmHg 96%
    06:00 +24°C° 1.3 mm 6 mps 752 mmHg 96%
    07:00 +26°C° 1.3 mm 6 mps 752 mmHg 95%
    08:00 +27°C° 0.4 mm 7 mps 752 mmHg 90%
    09:00 +28°C° 0.4 mm 7 mps 752 mmHg 85%
    10:00 +29°C° 0.4 mm 7 mps 752 mmHg 80%
    11:00 +29°C° 1.6 mm 7 mps 752 mmHg 81%
    12:00 +28°C° 1.6 mm 7 mps 751 mmHg 82%
    13:00 +28°C° 1.6 mm 8 mps 750 mmHg 83%
    14:00 +28°C° 2.7 mm 7 mps 750 mmHg 86%
    15:00 +27°C° 2.7 mm 7 mps 750 mmHg 90%
    16:00 +26°C° 2.7 mm 7 mps 750 mmHg 94%
    17:00 +26°C° 1.5 mm 6 mps 751 mmHg 94%
    18:00 +26°C° 1.5 mm 6 mps 751 mmHg 95%
    19:00 +24°C° 1.5 mm 6 mps 752 mmHg 95%
    20:00 +24°C° 0.7 mm 6 mps 752 mmHg 95%
    21:00 +25°C° 0.7 mm 5 mps 752 mmHg 95%
    22:00 +25°C° 0.7 mm 5 mps 753 mmHg 95%
    23:00 +25°C° 1.2 mm 4 mps 753 mmHg 95%

    24 December, Monday

    Time Temperature Precipitation Wind Pressure Humidity
    00:00 +25°C° 1.2 mm 4 mps 752 mmHg 96%
    01:00 +25°C° 1.2 mm 3 mps 752 mmHg 96%
    02:00 +25°C° 1 mm 3 mps 752 mmHg 96%
    03:00 +25°C° 1 mm 3 mps 752 mmHg 96%
    04:00 +25°C° 1 mm 3 mps 751 mmHg 96%
    05:00 +25°C° 0.3 mm 4 mps 752 mmHg 95%
    06:00 +25°C° 0.3 mm 4 mps 752 mmHg 94%
    07:00 +25°C° 0.3 mm 4 mps 753 mmHg 93%
    08:00 +26°C° 0 mm 4 mps 753 mmHg 89%
    09:00 +27°C° 0 mm 3 mps 753 mmHg 84%
    10:00 +29°C° 0 mm 3 mps 753 mmHg 79%
    11:00 +30°C° 0 mm 3 mps 753 mmHg 74%
    12:00 +30°C° 0 mm 4 mps 752 mmHg 69%
    13:00 +32°C° 0 mm 4 mps 751 mmHg 64%
    14:00 +32°C° 0 mm 4 mps 751 mmHg 70%
    15:00 +30°C° 0 mm 4 mps 751 mmHg 75%
    16:00 +29°C° 0 mm 4 mps 750 mmHg 81%
    17:00 +28°C° 0 mm 4 mps 751 mmHg 85%
    18:00 +27°C° 0 mm 4 mps 752 mmHg 89%
    19:00 +27°C° 0 mm 4 mps 752 mmHg 93%
    20:00 +26°C° 0 mm 4 mps 752 mmHg 94%
    21:00 +26°C° 0 mm 4 mps 752 mmHg 94%
    22:00 +26°C° 0 mm 4 mps 753 mmHg 94%
    23:00 +26°C° 0 mm 4 mps 752 mmHg 94%
    Show more